| time (UTC) | temp F | wind direction | speed knots | gust knots | rain 1hr in | rain 24hr in | rain mn in | humidity % | barometer mb |
| 20260507100332 | 58 | 1 | 4.3 | 6.1 | 0.00 | 0.00 | 0.00 | 85 | 1010.0 |
| 20260507095831 | 58 | 336 | 4.3 | 4.3 | 0.00 | 0.00 | 0.00 | 85 | 1010.0 |
| 20260507095331 | 58 | 6 | 4.3 | 7.8 | 0.00 | 0.00 | 0.00 | 85 | 1010.0 |
| 20260507094831 | 58 | 352 | 4.3 | 5.2 | 0.00 | 0.00 | 0.00 | 85 | 1009.9 |
| 20260507094331 | 58 | 338 | 5.2 | 7.0 | 0.00 | 0.00 | 0.00 | 84 | 1009.9 |
| 20260507093831 | 58 | 337 | 4.3 | 5.2 | 0.00 | 0.00 | 0.00 | 84 | 1009.9 |
| 20260507093331 | 58 | 354 | 5.2 | 6.1 | 0.00 | 0.00 | 0.00 | 84 | 1009.9 |
| 20260507092831 | 58 | 317 | 4.3 | 6.1 | 0.00 | 0.00 | 0.00 | 83 | 1009.9 |
| 20260507092331 | 58 | 334 | 0.9 | 5.2 | 0.00 | 0.00 | 0.00 | 83 | 1009.8 |
| 20260507091830 | 59 | 27 | 2.6 | 6.1 | 0.00 | 0.00 | 0.00 | 85 | 1009.9 |
| 20260507091330 | 58 | 357 | 2.6 | 2.6 | 0.00 | 0.00 | 0.00 | 85 | 1010.0 |
| 20260507090831 | 58 | 5 | 4.3 | 5.2 | 0.00 | 0.00 | 0.00 | 85 | 1009.9 |
| 20260507090330 | 57 | 8 | 0.9 | 5.2 | 0.00 | 0.00 | 0.00 | 85 | 1009.9 |
| 20260507085832 | 57 | 81 | 4.3 | 5.2 | 0.00 | 0.00 | 0.00 | 86 | 1010.0 |
| 20260507085331 | 56 | 26 | 2.6 | 2.6 | 0.00 | 0.00 | 0.00 | 85 | 1010.0 |
| 20260507084830 | 56 | 51 | 1.7 | 5.2 | 0.00 | 0.00 | 0.00 | 86 | 1010.1 |
| 20260507084331 | 56 | 242 | 0.9 | 0.9 | 0.00 | 0.00 | 0.00 | 88 | 1010.1 |
| 20260507083831 | 56 | 31 | 1.7 | 2.6 | 0.00 | 0.00 | 0.00 | 87 | 1010.1 |
| 20260507083330 | 56 | 49 | 5.2 | 7.0 | 0.00 | 0.00 | 0.00 | 88 | 1010.1 |
| 20260507082831 | 56 | 10 | 2.6 | 5.2 | 0.00 | 0.00 | 0.00 | 90 | 1010.0 |
| 20260507082330 | 55 | 42 | 2.6 | 4.3 | 0.00 | 0.00 | 0.00 | 93 | 1010.1 |
| 20260507081832 | 55 | 8 | 1.7 | 2.6 | 0.00 | 0.00 | 0.00 | 95 | 1010.0 |
| 20260507081331 | 54 | 13 | 1.7 | 2.6 | 0.00 | 0.00 | 0.00 | 96 | 1010.0 |
| 20260507080830 | 54 | 69 | 2.6 | 5.2 | 0.00 | 0.00 | 0.00 | 96 | 1010.1 |
| 20260507080331 | 54 | 21 | 0.9 | 1.7 | 0.00 | 0.00 | 0.00 | 97 | 1010.2 |
| 20260507075831 | 55 | 9 | 0.9 | 5.2 | 0.00 | 0.00 | 0.00 | 98 | 1010.3 |
| 20260507075330 | 54 | 24 | 0.9 | 2.6 | 0.00 | 0.00 | 0.00 | 98 | 1010.3 |
| 20260507074831 | 54 | 96 | 0.9 | 1.7 | 0.00 | 0.00 | 0.00 | 99 | 1010.3 |
| 20260507074331 | 54 | 90 | 0.9 | 1.7 | 0.00 | 0.00 | 0.00 | 99 | 1010.3 |
| 20260507073830 | 53 | 142 | 0.0 | 0.0 | 0.00 | 0.00 | 0.00 | 99 | 1010.3 |
| 20260507073331 | 53 | 25 | 1.7 | 2.6 | 0.00 | 0.00 | 0.00 | 99 | 1010.4 |
| 20260507072830 | 53 | 124 | 0.0 | 0.9 | 0.00 | 0.00 | 0.00 | 99 | 1010.4 |
| 20260507072332 | 51 | 143 | 0.0 | 0.0 | 0.00 | 0.00 | 0.00 | 99 | 1010.4 |
| 20260507071832 | 50 | 141 | 0.0 | 0.9 | 0.00 | 0.00 | 0.00 | 99 | 1010.3 |
| 20260507071332 | 49 | 221 | 0.0 | 0.0 | 0.00 | 0.00 | 0.00 | 99 | 1010.3 |
| 20260507070831 | 47 | 247 | 0.0 | 0.0 | 0.00 | 0.00 | 0.00 | 99 | 1010.3 |
| 20260507070331 | 47 | 247 | 0.0 | 0.0 | 0.00 | 0.00 | 0.00 | 99 | 1010.3 |
| 20260507065830 | 46 | 247 | 0.0 | 0.9 | 0.00 | 0.01 | 0.00 | 98 | 1010.3 |
| 20260507065330 | 46 | 247 | 0.0 | 0.0 | 0.00 | 0.01 | 0.00 | 99 | 1010.5 |
| 20260507064830 | 46 | 247 | 0.0 | 0.0 | 0.00 | 0.01 | 0.00 | 99 | 1010.5 |
| 20260507064330 | 45 | 247 | 0.0 | 0.0 | 0.00 | 0.01 | 0.00 | 99 | 1010.5 |
| 20260507063830 | 45 | 247 | 0.0 | 0.0 | 0.00 | 0.01 | 0.00 | 99 | 1010.6 |
| 20260507063331 | 45 | 247 | 0.0 | 0.0 | 0.00 | 0.01 | 0.00 | 99 | 1010.6 |
| 20260507062830 | 44 | 245 | 0.0 | 0.0 | 0.00 | 0.01 | 0.00 | 99 | 1010.6 |
| 20260507062330 | 44 | 245 | 0.0 | 0.9 | 0.00 | 0.01 | 0.00 | 99 | 1010.5 |
| 20260507061830 | 44 | 117 | 0.0 | 0.0 | 0.00 | 0.01 | 0.00 | 98 | 1010.6 |
| 20260507061330 | 44 | 117 | 0.0 | 0.0 | 0.00 | 0.02 | 0.00 | 98 | 1010.6 |
| 20260507060830 | 44 | 117 | 0.0 | 0.0 | 0.00 | 0.02 | 0.00 | 98 | 1010.6 |
| 20260507060330 | 43 | 117 | 0.0 | 0.0 | 0.00 | 0.02 | 0.00 | 98 | 1010.6 |
| 20260507055830 | 43 | 117 | 0.0 | 0.0 | 0.00 | 0.02 | 0.00 | 98 | 1010.6 |
| 20260507055330 | 43 | 117 | 0.0 | 0.0 | 0.00 | 0.03 | 0.00 | 98 | 1010.6 |
| 20260507054830 | 43 | 117 | 0.0 | 0.0 | 0.00 | 0.03 | 0.00 | 98 | 1010.7 |
| 20260507054330 | 43 | 117 | 0.0 | 0.0 | 0.00 | 0.04 | 0.00 | 98 | 1010.6 |
| 20260507053830 | 43 | 117 | 0.0 | 0.0 | 0.00 | 0.06 | 0.00 | 98 | 1010.6 |
| 20260507053330 | 43 | 117 | 0.0 | 0.0 | 0.00 | 0.07 | 0.00 | 98 | 1010.6 |
| 20260507052830 | 43 | 117 | 0.0 | 0.0 | 0.00 | 0.08 | 0.00 | 98 | 1010.6 |
| 20260507052331 | 43 | 117 | 0.0 | 0.0 | 0.00 | 0.08 | 0.00 | 98 | 1010.6 |
| 20260507051830 | 44 | 117 | 0.0 | 0.0 | 0.00 | 0.08 | 0.00 | 98 | 1010.6 |
| 20260507051330 | 44 | 117 | 0.0 | 0.0 | 0.00 | 0.08 | 0.00 | 98 | 1010.6 |
| 20260507050830 | 44 | 117 | 0.0 | 0.0 | 0.00 | 0.08 | 0.00 | 98 | 1010.6 |
| 20260507050330 | 44 | 117 | 0.0 | 0.0 | 0.00 | 0.08 | 0.00 | 98 | 1010.6 |
| 20260507045830 | 44 | 117 | 0.0 | 0.0 | 0.00 | 0.08 | 0.00 | 98 | 1010.8 |
| 20260507045330 | 44 | 117 | 0.0 | 0.0 | 0.00 | 0.08 | 0.00 | 98 | 1010.8 |
| 20260507044830 | 44 | 117 | 0.0 | 0.0 | 0.00 | 0.08 | 0.00 | 98 | 1010.8 |
| 20260507044330 | 44 | 117 | 0.0 | 0.0 | 0.00 | 0.08 | 0.00 | 98 | 1010.8 |
| 20260507043830 | 44 | 117 | 0.0 | 0.0 | 0.00 | 0.08 | 0.00 | 98 | 1011.0 |
| 20260507043330 | 45 | 91 | 0.0 | 0.0 | 0.00 | 0.08 | 0.00 | 98 | 1010.9 |
| 20260507042830 | 45 | 91 | 0.0 | 0.9 | 0.00 | 0.08 | 0.00 | 98 | 1011.0 |
| 20260507042330 | 45 | 90 | 0.0 | 0.0 | 0.00 | 0.08 | 0.00 | 98 | 1011.0 |
| 20260507041830 | 44 | 90 | 0.0 | 0.9 | 0.00 | 0.08 | 0.00 | 98 | 1011.1 |
| 20260507041330 | 44 | 96 | 0.0 | 0.0 | 0.00 | 0.08 | 0.00 | 98 | 1011.1 |
| 20260507040830 | 44 | 96 | 0.0 | 0.0 | 0.00 | 0.08 | 0.00 | 98 | 1011.2 |
| 20260507040330 | 44 | 96 | 0.0 | 0.0 | 0.00 | 0.08 | 0.00 | 98 | 1011.2 |
| 20260507035830 | 44 | 96 | 0.0 | 0.0 | 0.00 | 0.08 | 0.00 | 98 | 1011.2 |
| 20260507035331 | 44 | 96 | 0.0 | 0.0 | 0.00 | 0.08 | 0.00 | 98 | 1011.3 |
| 20260507034831 | 44 | 96 | 0.0 | 0.0 | 0.00 | 0.08 | 0.00 | 98 | 1011.3 |
| 20260507034331 | 44 | 96 | 0.0 | 0.0 | 0.00 | 0.09 | 0.00 | 98 | 1011.4 |
| 20260507033831 | 43 | 96 | 0.0 | 0.0 | 0.00 | 0.09 | 0.00 | 98 | 1011.3 |
| 20260507033331 | 43 | 96 | 0.0 | 0.0 | 0.00 | 0.09 | 0.00 | 98 | 1011.3 |
| 20260507032831 | 43 | 96 | 0.0 | 0.0 | 0.00 | 0.09 | 0.00 | 98 | 1011.3 |
| 20260507032331 | 43 | 96 | 0.0 | 0.0 | 0.00 | 0.09 | 0.00 | 97 | 1011.4 |
| 20260507031831 | 43 | 96 | 0.0 | 0.0 | 0.00 | 0.09 | 0.00 | 97 | 1011.4 |
| 20260507031331 | 43 | 96 | 0.0 | 0.0 | 0.00 | 0.09 | 0.00 | 97 | 1011.4 |
| 20260507030831 | 43 | 96 | 0.0 | 0.0 | 0.00 | 0.09 | 0.00 | 97 | 1011.3 |
| 20260507030331 | 43 | 96 | 0.0 | 0.0 | 0.00 | 0.09 | 0.00 | 97 | 1011.4 |
| 20260507025831 | 43 | 96 | 0.0 | 0.0 | 0.00 | 0.09 | 0.00 | 97 | 1011.3 |
| 20260507025331 | 43 | 96 | 0.0 | 0.0 | 0.00 | 0.09 | 0.00 | 97 | 1011.3 |
| 20260507024831 | 43 | 96 | 0.0 | 0.0 | 0.00 | 0.09 | 0.00 | 97 | 1011.4 |
| 20260507024331 | 44 | 96 | 0.0 | 0.0 | 0.00 | 0.09 | 0.00 | 97 | 1011.4 |
| 20260507023831 | 44 | 96 | 0.0 | 0.0 | 0.00 | 0.09 | 0.00 | 97 | 1011.5 |
| 20260507023331 | 44 | 96 | 0.0 | 0.0 | 0.00 | 0.09 | 0.00 | 97 | 1011.4 |
| 20260507022831 | 44 | 96 | 0.0 | 0.0 | 0.00 | 0.09 | 0.00 | 97 | 1011.5 |
| 20260507022331 | 44 | 96 | 0.0 | 0.0 | 0.00 | 0.09 | 0.00 | 97 | 1011.5 |
| 20260507021831 | 44 | 96 | 0.0 | 0.0 | 0.00 | 0.09 | 0.00 | 97 | 1011.6 |
| 20260507021332 | 45 | 96 | 0.0 | 0.0 | 0.00 | 0.09 | 0.00 | 97 | 1011.6 |
| 20260507020832 | 45 | 96 | 0.0 | 0.0 | 0.00 | 0.09 | 0.00 | 96 | 1011.7 |
| 20260507020332 | 45 | 96 | 0.0 | 0.0 | 0.00 | 0.09 | 0.00 | 96 | 1011.6 |
| 20260507015831 | 45 | 96 | 0.0 | 0.0 | 0.00 | 0.09 | 0.00 | 96 | 1011.6 |
| 20260507015331 | 45 | 96 | 0.0 | 0.0 | 0.00 | 0.09 | 0.00 | 97 | 1011.6 |
| 20260507014831 | 45 | 96 | 0.0 | 0.0 | 0.00 | 0.09 | 0.00 | 96 | 1011.6 |
| 20260507014331 | 45 | 96 | 0.0 | 0.0 | 0.00 | 0.09 | 0.00 | 96 | 1011.7 |
| 20260507013832 | 46 | 96 | 0.0 | 0.0 | 0.00 | 0.09 | 0.00 | 96 | 1011.7 |
| 20260507013331 | 46 | 96 | 0.0 | 0.0 | 0.00 | 0.09 | 0.00 | 96 | 1011.8 |
| 20260507012831 | 46 | 96 | 0.0 | 0.0 | 0.00 | 0.09 | 0.00 | 96 | 1011.9 |
| 20260507012331 | 46 | 96 | 0.0 | 0.0 | 0.00 | 0.09 | 0.00 | 96 | 1011.8 |
| 20260507011831 | 46 | 96 | 0.0 | 0.0 | 0.00 | 0.09 | 0.00 | 96 | 1011.9 |
| 20260507011331 | 47 | 96 | 0.0 | 0.0 | 0.00 | 0.09 | 0.00 | 96 | 1012.0 |
| 20260507010831 | 47 | 96 | 0.0 | 0.0 | 0.00 | 0.09 | 0.00 | 96 | 1012.0 |
| 20260507010331 | 47 | 96 | 0.0 | 0.0 | 0.00 | 0.09 | 0.00 | 96 | 1012.0 |
| 20260507005831 | 47 | 96 | 0.0 | 0.0 | 0.00 | 0.09 | 0.00 | 96 | 1012.1 |
| 20260507005332 | 48 | 96 | 0.0 | 0.0 | 0.00 | 0.09 | 0.00 | 96 | 1012.1 |
| 20260507004831 | 48 | 96 | 0.0 | 0.0 | 0.00 | 0.09 | 0.00 | 96 | 1012.2 |
| 20260507004331 | 48 | 96 | 0.0 | 0.0 | 0.00 | 0.09 | 0.00 | 96 | 1012.1 |
| 20260507003830 | 48 | 96 | 0.0 | 0.0 | 0.00 | 0.09 | 0.00 | 95 | 1012.1 |
| 20260507003331 | 48 | 96 | 0.0 | 0.9 | 0.00 | 0.09 | 0.00 | 95 | 1012.2 |
| 20260507002831 | 48 | 96 | 0.0 | 0.0 | 0.00 | 0.09 | 0.00 | 95 | 1012.3 |
| 20260507002331 | 49 | 96 | 0.0 | 0.0 | 0.00 | 0.09 | 0.00 | 95 | 1012.2 |
| 20260507001719 | 49 | 96 | 0.0 | 0.0 | 0.00 | 0.09 | 0.00 | 95 | 1012.2 |
| 20260507001219 | 49 | 96 | 0.0 | 0.0 | 0.00 | 0.09 | 0.00 | 95 | 1012.3 |
| 20260507000719 | 49 | 96 | 0.0 | 0.0 | 0.00 | 0.09 | 0.00 | 94 | 1012.3 |
| 20260507000219 | 50 | 96 | 0.0 | 0.0 | 0.00 | 0.09 | 0.00 | 94 | 1012.4 |
| 20260506235719 | 50 | 96 | 0.0 | 0.0 | 0.00 | 0.09 | 0.00 | 94 | 1012.4 |
| 20260506235219 | 50 | 354 | 0.0 | 0.0 | 0.00 | 0.09 | 0.00 | 94 | 1012.4 |
| 20260506234719 | 51 | 354 | 0.0 | 0.0 | 0.00 | 0.09 | 0.00 | 94 | 1012.5 |
| 20260506234219 | 51 | 354 | 0.0 | 0.0 | 0.00 | 0.09 | 0.00 | 94 | 1012.4 |
| 20260506233719 | 51 | 354 | 0.0 | 0.9 | 0.00 | 0.09 | 0.00 | 94 | 1012.6 |
| 20260506233219 | 51 | 354 | 0.0 | 0.0 | 0.00 | 0.09 | 0.00 | 94 | 1012.6 |
| 20260506232719 | 51 | 354 | 0.0 | 0.0 | 0.00 | 0.09 | 0.00 | 94 | 1012.6 |
| 20260506232219 | 52 | 354 | 0.0 | 0.0 | 0.00 | 0.09 | 0.00 | 94 | 1012.7 |
| 20260506231719 | 52 | 354 | 0.0 | 0.0 | 0.00 | 0.09 | 0.00 | 94 | 1012.8 |
| 20260506231219 | 52 | 354 | 0.0 | 0.0 | 0.00 | 0.09 | 0.00 | 94 | 1012.7 |
| 20260506230719 | 52 | 354 | 0.0 | 0.9 | 0.00 | 0.09 | 0.00 | 94 | 1012.8 |
| 20260506230219 | 52 | 31 | 0.0 | 0.9 | 0.00 | 0.09 | 0.00 | 94 | 1012.8 |
| 20260506225720 | 52 | 347 | 0.0 | 1.7 | 0.00 | 0.09 | 0.00 | 94 | 1012.7 |
| 20260506225219 | 53 | 37 | 0.0 | 0.9 | 0.00 | 0.09 | 0.00 | 93 | 1012.7 |
| 20260506224720 | 53 | 81 | 0.0 | 0.9 | 0.00 | 0.09 | 0.00 | 93 | 1012.8 |
| 20260506224220 | 53 | 38 | 0.0 | 0.9 | 0.00 | 0.09 | 0.00 | 93 | 1012.9 |
| 20260506223720 | 53 | 64 | 0.9 | 1.7 | 0.00 | 0.09 | 0.00 | 93 | 1012.8 |
| 20260506223220 | 53 | 51 | 0.9 | 1.7 | 0.00 | 0.09 | 0.00 | 93 | 1012.9 |
| 20260506222720 | 53 | 51 | 0.0 | 0.9 | 0.00 | 0.09 | 0.00 | 93 | 1012.9 |
| 20260506222220 | 53 | 73 | 0.9 | 1.7 | 0.00 | 0.09 | 0.00 | 93 | 1012.9 |
| 20260506221720 | 53 | 10 | 0.0 | 0.9 | 0.00 | 0.09 | 0.00 | 92 | 1013.0 |
| 20260506221220 | 53 | 23 | 0.9 | 1.7 | 0.00 | 0.09 | 0.00 | 92 | 1013.1 |
| 20260506220720 | 53 | 71 | 0.0 | 0.0 | 0.00 | 0.09 | 0.00 | 92 | 1013.3 |
| 20260506220220 | 53 | 79 | 0.9 | 2.6 | 0.00 | 0.09 | 0.00 | 92 | 1013.3 |
| 20260506215720 | 53 | 53 | 0.0 | 1.7 | 0.00 | 0.09 | 0.09 | 91 | 1013.3 |
| 20260506215220 | 54 | 90 | 0.0 | 0.9 | 0.00 | 0.09 | 0.09 | 91 | 1013.4 |
| 20260506214720 | 54 | 73 | 0.9 | 1.7 | 0.00 | 0.09 | 0.09 | 91 | 1013.4 |
| 20260506214220 | 54 | 80 | 0.9 | 1.7 | 0.00 | 0.09 | 0.09 | 91 | 1013.4 |
| 20260506213720 | 54 | 37 | 1.7 | 6.1 | 0.00 | 0.09 | 0.09 | 91 | 1013.4 |
| 20260506213220 | 54 | 68 | 0.0 | 1.7 | 0.00 | 0.09 | 0.09 | 91 | 1013.4 |
| 20260506212720 | 54 | 59 | 0.9 | 2.6 | 0.00 | 0.09 | 0.09 | 91 | 1013.4 |
| 20260506212221 | 54 | 43 | 0.9 | 2.6 | 0.00 | 0.09 | 0.09 | 91 | 1013.4 |
| 20260506211720 | 54 | 75 | 0.0 | 0.0 | 0.00 | 0.09 | 0.09 | 91 | 1013.4 |
| 20260506211220 | 54 | 354 | 0.0 | 0.9 | 0.00 | 0.09 | 0.09 | 91 | 1013.3 |
| 20260506210720 | 54 | 32 | 1.7 | 2.6 | 0.00 | 0.09 | 0.09 | 91 | 1013.4 |
| 20260506210220 | 54 | 12 | 0.9 | 1.7 | 0.00 | 0.09 | 0.09 | 91 | 1013.4 |
| 20260506205720 | 54 | 60 | 0.9 | 1.7 | 0.00 | 0.09 | 0.09 | 90 | 1013.4 |
| 20260506205220 | 54 | 30 | 0.0 | 0.9 | 0.00 | 0.09 | 0.09 | 90 | 1013.4 |
| 20260506204720 | 54 | 326 | 0.0 | 0.9 | 0.00 | 0.09 | 0.09 | 90 | 1013.4 |
| 20260506204220 | 54 | 356 | 0.0 | 0.9 | 0.00 | 0.09 | 0.09 | 90 | 1013.3 |
| 20260506203720 | 54 | 8 | 0.0 | 1.7 | 0.00 | 0.09 | 0.09 | 90 | 1013.3 |
| 20260506203220 | 54 | 332 | 0.0 | 1.7 | 0.00 | 0.09 | 0.09 | 89 | 1013.3 |
| 20260506202720 | 54 | 352 | 0.0 | 1.7 | 0.00 | 0.09 | 0.09 | 89 | 1013.3 |
| 20260506202220 | 54 | 329 | 1.7 | 2.6 | 0.00 | 0.09 | 0.09 | 90 | 1013.3 |
| 20260506201720 | 54 | 311 | 0.9 | 1.7 | 0.00 | 0.09 | 0.09 | 90 | 1013.3 |
| 20260506201220 | 54 | 351 | 0.9 | 2.6 | 0.00 | 0.09 | 0.09 | 90 | 1013.3 |
| 20260506200720 | 54 | 349 | 1.7 | 2.6 | 0.00 | 0.09 | 0.09 | 90 | 1013.2 |
| 20260506200220 | 54 | 352 | 0.9 | 2.6 | 0.00 | 0.09 | 0.09 | 90 | 1013.3 |
| 20260506195719 | 54 | 346 | 0.0 | 0.9 | 0.00 | 0.09 | 0.09 | 91 | 1013.2 |
| 20260506195220 | 54 | 351 | 1.7 | 2.6 | 0.00 | 0.09 | 0.09 | 91 | 1013.2 |
| 20260506194720 | 54 | 1 | 1.7 | 5.2 | 0.00 | 0.09 | 0.09 | 91 | 1013.2 |
| 20260506194219 | 54 | 355 | 0.9 | 0.9 | 0.00 | 0.09 | 0.09 | 91 | 1013.3 |
| 20260506193719 | 54 | 7 | 0.0 | 0.9 | 0.00 | 0.09 | 0.09 | 91 | 1013.3 |
| 20260506193219 | 54 | 16 | 0.9 | 2.6 | 0.00 | 0.09 | 0.09 | 91 | 1013.4 |
| 20260506192719 | 54 | 357 | 0.0 | 0.9 | 0.00 | 0.09 | 0.09 | 91 | 1013.3 |
| 20260506192219 | 54 | 353 | 1.7 | 1.7 | 0.00 | 0.09 | 0.09 | 91 | 1013.4 |
| 20260506191719 | 55 | 50 | 0.9 | 2.6 | 0.00 | 0.09 | 0.09 | 91 | 1013.3 |
| 20260506191219 | 55 | 14 | 0.0 | 0.9 | 0.00 | 0.09 | 0.09 | 91 | 1013.3 |
| 20260506190719 | 55 | 356 | 0.9 | 0.9 | 0.00 | 0.09 | 0.09 | 91 | 1013.3 |
| 20260506190220 | 55 | 357 | 0.0 | 0.9 | 0.00 | 0.09 | 0.09 | 91 | 1013.3 |
| 20260506185719 | 55 | 12 | 1.7 | 4.3 | 0.00 | 0.09 | 0.09 | 91 | 1013.3 |
| 20260506185219 | 55 | 28 | 0.9 | 2.6 | 0.00 | 0.09 | 0.09 | 91 | 1013.3 |
| 20260506184719 | 55 | 1 | 0.9 | 4.3 | 0.00 | 0.09 | 0.09 | 90 | 1013.3 |
| 20260506184219 | 55 | 30 | 1.7 | 2.6 | 0.00 | 0.09 | 0.09 | 90 | 1013.3 |
| 20260506183719 | 55 | 24 | 2.6 | 5.2 | 0.00 | 0.09 | 0.09 | 90 | 1013.3 |
| 20260506183219 | 55 | 30 | 0.9 | 1.7 | 0.00 | 0.09 | 0.09 | 90 | 1013.4 |
| 20260506182719 | 55 | 345 | 2.6 | 5.2 | 0.00 | 0.09 | 0.09 | 89 | 1013.4 |
| 20260506182219 | 55 | 20 | 1.7 | 4.3 | 0.00 | 0.09 | 0.09 | 89 | 1013.4 |
| 20260506181719 | 55 | 9 | 4.3 | 5.2 | 0.00 | 0.09 | 0.09 | 89 | 1013.4 |
| 20260506181220 | 56 | 303 | 1.7 | 6.1 | 0.00 | 0.09 | 0.09 | 90 | 1013.4 |
| 20260506180720 | 55 | 353 | 2.6 | 5.2 | 0.00 | 0.09 | 0.09 | 90 | 1013.4 |
| 20260506180220 | 55 | 357 | 1.7 | 4.3 | 0.00 | 0.09 | 0.09 | 90 | 1013.4 |
| 20260506175720 | 55 | 358 | 1.7 | 2.6 | 0.00 | 0.09 | 0.09 | 90 | 1013.4 |
| 20260506175220 | 55 | 8 | 2.6 | 5.2 | 0.00 | 0.09 | 0.09 | 90 | 1013.5 |
| 20260506174720 | 55 | 33 | 2.6 | 5.2 | 0.00 | 0.09 | 0.09 | 90 | 1013.5 |
| 20260506174220 | 55 | 341 | 1.7 | 2.6 | 0.00 | 0.09 | 0.09 | 89 | 1013.4 |
| 20260506173720 | 55 | 26 | 2.6 | 4.3 | 0.00 | 0.09 | 0.09 | 89 | 1013.6 |
| 20260506173220 | 56 | 7 | 4.3 | 7.0 | 0.00 | 0.09 | 0.09 | 89 | 1013.7 |
| 20260506172720 | 55 | 5 | 2.6 | 4.3 | 0.00 | 0.09 | 0.09 | 88 | 1013.8 |
| 20260506172220 | 56 | 25 | 0.9 | 5.2 | 0.00 | 0.09 | 0.09 | 88 | 1013.7 |
| 20260506171720 | 56 | 28 | 4.3 | 7.0 | 0.00 | 0.09 | 0.09 | 88 | 1013.7 |
| 20260506171220 | 56 | 20 | 1.7 | 2.6 | 0.00 | 0.09 | 0.09 | 89 | 1013.7 |
| 20260506170720 | 56 | 319 | 2.6 | 5.2 | 0.00 | 0.09 | 0.09 | 89 | 1013.7 |
| 20260506170220 | 56 | 13 | 2.6 | 6.1 | 0.00 | 0.09 | 0.09 | 88 | 1013.7 |
| 20260506165720 | 57 | 32 | 2.6 | 7.8 | 0.00 | 0.09 | 0.09 | 88 | 1013.6 |
| 20260506165220 | 57 | 10 | 4.3 | 6.1 | 0.00 | 0.09 | 0.09 | 86 | 1013.8 |
| 20260506164720 | 57 | 29 | 4.3 | 7.0 | 0.00 | 0.09 | 0.09 | 86 | 1013.7 |
| 20260506164221 | 57 | 10 | 2.6 | 6.1 | 0.00 | 0.09 | 0.09 | 84 | 1013.7 |
| 20260506163721 | 57 | 20 | 2.6 | 5.2 | 0.00 | 0.09 | 0.09 | 84 | 1013.7 |
| 20260506163221 | 56 | 12 | 2.6 | 5.2 | 0.00 | 0.09 | 0.09 | 83 | 1013.7 |
| 20260506162721 | 56 | 13 | 4.3 | 8.7 | 0.00 | 0.09 | 0.09 | 83 | 1013.8 |
| 20260506162221 | 56 | 11 | 5.2 | 7.0 | 0.00 | 0.09 | 0.09 | 83 | 1013.7 |
| 20260506161721 | 56 | 340 | 4.3 | 8.7 | 0.00 | 0.09 | 0.09 | 84 | 1013.8 |
| 20260506161221 | 57 | 28 | 1.7 | 5.2 | 0.00 | 0.09 | 0.09 | 84 | 1013.8 |
| 20260506160721 | 58 | 355 | 1.7 | 5.2 | 0.00 | 0.09 | 0.09 | 84 | 1013.9 |
| 20260506160221 | 58 | 339 | 4.3 | 5.2 | 0.00 | 0.09 | 0.09 | 83 | 1013.8 |
| 20260506155721 | 58 | 7 | 4.3 | 6.1 | 0.00 | 0.09 | 0.09 | 82 | 1013.9 |
| 20260506155221 | 58 | 354 | 5.2 | 7.8 | 0.00 | 0.09 | 0.09 | 81 | 1013.9 |
| 20260506154721 | 58 | 332 | 5.2 | 7.8 | 0.00 | 0.09 | 0.09 | 80 | 1013.9 |
| 20260506154221 | 58 | 342 | 5.2 | 7.0 | 0.00 | 0.09 | 0.09 | 79 | 1014.0 |
| 20260506153721 | 58 | 5 | 4.3 | 6.1 | 0.00 | 0.09 | 0.09 | 81 | 1013.9 |
| 20260506153219 | 58 | 349 | 2.6 | 7.8 | 0.00 | 0.09 | 0.09 | 81 | 1013.9 |
| 20260506152719 | 58 | 352 | 4.3 | 8.7 | 0.00 | 0.09 | 0.09 | 81 | 1014.0 |
| 20260506152219 | 58 | 307 | 4.3 | 7.0 | 0.00 | 0.09 | 0.09 | 82 | 1013.9 |
| 20260506151719 | 58 | 328 | 1.7 | 2.6 | 0.00 | 0.09 | 0.09 | 81 | 1014.0 |
| 20260506151219 | 58 | 334 | 2.6 | 6.1 | 0.00 | 0.09 | 0.09 | 80 | 1014.0 |
| 20260506150719 | 58 | 12 | 2.6 | 2.6 | 0.00 | 0.09 | 0.09 | 80 | 1014.1 |
| 20260506150219 | 58 | 343 | 2.6 | 7.0 | 0.00 | 0.09 | 0.09 | 81 | 1014.1 |
| 20260506145719 | 58 | 11 | 2.6 | 5.2 | 0.00 | 0.09 | 0.09 | 79 | 1014.3 |
| 20260506145219 | 59 | 301 | 2.6 | 4.3 | 0.00 | 0.09 | 0.09 | 78 | 1014.3 |
| 20260506144719 | 59 | 297 | 1.7 | 4.3 | 0.00 | 0.09 | 0.09 | 81 | 1014.3 |
| 20260506144219 | 59 | 26 | 5.2 | 6.1 | 0.00 | 0.09 | 0.09 | 77 | 1014.3 |
| 20260506143719 | 59 | 307 | 2.6 | 4.3 | 0.00 | 0.09 | 0.09 | 78 | 1014.4 |
| 20260506143219 | 59 | 336 | 1.7 | 5.2 | 0.00 | 0.09 | 0.09 | 77 | 1014.5 |
| 20260506142719 | 59 | 41 | 4.3 | 7.0 | 0.00 | 0.09 | 0.09 | 79 | 1014.5 |
| 20260506142219 | 59 | 20 | 5.2 | 7.8 | 0.00 | 0.09 | 0.09 | 78 | 1014.5 |
| 20260506141719 | 59 | 32 | 4.3 | 7.0 | 0.00 | 0.09 | 0.09 | 79 | 1014.5 |
| 20260506141219 | 59 | 314 | 2.6 | 7.0 | 0.00 | 0.09 | 0.09 | 77 | 1014.4 |
| 20260506140719 | 59 | 56 | 2.6 | 4.3 | 0.00 | 0.09 | 0.09 | 79 | 1014.5 |
| 20260506140219 | 58 | 350 | 2.6 | 6.1 | 0.00 | 0.09 | 0.09 | 79 | 1014.6 |
| 20260506135719 | 59 | 347 | 2.6 | 7.0 | 0.00 | 0.09 | 0.09 | 80 | 1014.5 |
| 20260506135219 | 58 | 2 | 2.6 | 5.2 | 0.00 | 0.09 | 0.09 | 80 | 1014.6 |
| 20260506134719 | 58 | 294 | 2.6 | 5.2 | 0.00 | 0.09 | 0.09 | 80 | 1014.7 |
| 20260506134219 | 58 | 359 | 2.6 | 4.3 | 0.00 | 0.09 | 0.09 | 79 | 1014.6 |
| 20260506133718 | 58 | 342 | 5.2 | 8.7 | 0.00 | 0.09 | 0.09 | 80 | 1014.6 |
| 20260506133219 | 58 | 306 | 1.7 | 5.2 | 0.00 | 0.09 | 0.09 | 80 | 1014.7 |
| 20260506132719 | 58 | 339 | 5.2 | 5.2 | 0.00 | 0.09 | 0.09 | 76 | 1014.6 |
| 20260506132219 | 59 | 314 | 1.7 | 2.6 | 0.00 | 0.09 | 0.09 | 77 | 1014.7 |
| 20260506131719 | 59 | 9 | 1.7 | 4.3 | 0.00 | 0.09 | 0.09 | 77 | 1014.7 |
| 20260506131219 | 59 | 5 | 4.3 | 7.0 | 0.00 | 0.09 | 0.09 | 79 | 1014.7 |
| 20260506130719 | 60 | 331 | 2.6 | 6.1 | 0.00 | 0.09 | 0.09 | 77 | 1014.8 |
| 20260506130219 | 59 | 298 | 2.6 | 4.3 | 0.00 | 0.09 | 0.09 | 78 | 1014.7 |
| 20260506125719 | 59 | 42 | 4.3 | 5.2 | 0.00 | 0.09 | 0.09 | 78 | 1014.9 |
| 20260506125219 | 58 | 279 | 2.6 | 5.2 | 0.00 | 0.09 | 0.09 | 76 | 1014.8 |
| 20260506124719 | 59 | 20 | 4.3 | 7.0 | 0.00 | 0.09 | 0.09 | 78 | 1014.9 |
| 20260506124219 | 58 | 338 | 1.7 | 4.3 | 0.00 | 0.09 | 0.09 | 78 | 1014.8 |
| 20260506123719 | 58 | 35 | 2.6 | 10.4 | 0.00 | 0.09 | 0.09 | 79 | 1014.8 |
| 20260506123219 | 58 | 28 | 2.6 | 6.1 | 0.00 | 0.09 | 0.09 | 77 | 1014.9 |
| 20260506122719 | 59 | 350 | 2.6 | 6.1 | 0.00 | 0.09 | 0.09 | 81 | 1015.1 |
| 20260506122219 | 59 | 292 | 4.3 | 7.0 | 0.00 | 0.09 | 0.09 | 81 | 1015.0 |
| 20260506121719 | 58 | 300 | 2.6 | 5.2 | 0.00 | 0.09 | 0.09 | 82 | 1015.1 |
| 20260506121218 | 58 | 320 | 1.7 | 2.6 | 0.00 | 0.09 | 0.09 | 79 | 1015.0 |
| 20260506120719 | 58 | 347 | 2.6 | 7.8 | 0.00 | 0.09 | 0.09 | 83 | 1015.1 |
| 20260506120219 | 58 | 313 | 0.0 | 0.0 | 0.00 | 0.09 | 0.09 | 83 | 1015.2 |
| 20260506115719 | 58 | 318 | 0.0 | 0.0 | 0.00 | 0.09 | 0.09 | 83 | 1015.2 |
| 20260506115219 | 58 | 335 | 0.0 | 0.0 | 0.00 | 0.09 | 0.09 | 84 | 1015.1 |
| 20260506114719 | 57 | 16 | 0.0 | 0.0 | 0.00 | 0.09 | 0.09 | 83 | 1015.2 |
| 20260506114219 | 57 | 312 | 0.0 | 0.0 | 0.00 | 0.09 | 0.09 | 83 | 1015.2 |
| 20260506113719 | 56 | 354 | 0.0 | 0.0 | 0.00 | 0.09 | 0.09 | 82 | 1015.3 |
| 20260506113219 | 56 | 83 | 0.0 | 0.0 | 0.00 | 0.10 | 0.09 | 82 | 1015.3 |
| 20260506112719 | 56 | 343 | 0.0 | 0.0 | 0.00 | 0.10 | 0.09 | 86 | 1015.2 |
| 20260506112219 | 55 | 308 | 0.0 | 0.0 | 0.00 | 0.10 | 0.09 | 89 | 1015.3 |
| 20260506111719 | 55 | 293 | 0.0 | 0.0 | 0.00 | 0.10 | 0.09 | 90 | 1015.3 |
| 20260506111219 | 55 | 308 | 0.0 | 0.0 | 0.00 | 0.10 | 0.09 | 90 | 1015.4 |
| 20260506110719 | 56 | 296 | 0.0 | 0.0 | 0.00 | 0.10 | 0.09 | 89 | 1015.4 |
| 20260506110218 | 56 | 297 | 0.0 | 0.0 | 0.00 | 0.10 | 0.09 | 88 | 1015.3 |
| 20260506105719 | 56 | 332 | 0.0 | 0.0 | 0.00 | 0.10 | 0.09 | 88 | 1015.3 |
| 20260506105219 | 56 | 28 | 0.0 | 0.0 | 0.00 | 0.10 | 0.09 | 88 | 1015.4 |
| 20260506104718 | 57 | 68 | 0.0 | 0.0 | 0.00 | 0.10 | 0.09 | 88 | 1015.2 |
| 20260506104219 | 57 | 234 | 0.0 | 0.0 | 0.00 | 0.10 | 0.09 | 88 | 1015.1 |
| 20260506103719 | 57 | 126 | 0.0 | 0.0 | 0.00 | 0.10 | 0.09 | 89 | 1015.2 |
| 20260506103218 | 57 | 113 | 0.0 | 0.0 | 0.00 | 0.10 | 0.09 | 90 | 1015.3 |
| 20260506102719 | 57 | 199 | 0.0 | 0.0 | 0.00 | 0.10 | 0.09 | 93 | 1015.3 |
| 20260506102218 | 56 | 194 | 0.0 | 0.0 | 0.00 | 0.10 | 0.09 | 92 | 1015.2 |
| 20260506101720 | 55 | 262 | 0.0 | 0.0 | 0.00 | 0.10 | 0.09 | 92 | 1015.3 |
| 20260506101219 | 55 | 269 | 0.0 | 0.0 | 0.00 | 0.10 | 0.09 | 92 | 1015.2 |
| 20260506100718 | 55 | 229 | 0.0 | 0.0 | 0.00 | 0.10 | 0.09 | 92 | 1015.2 |